Volver al catálogo

STARLINK-31341

ActivoComunicacionesVLEO
NORAD 59155·PAYLOAD·🇺🇸 United States

Lanzado Mar 4, 2024 desde Cape Canaveral Space Force Station

Loading…

Próximos Pases (próximas 24 horas)

TLE

ActualizadoSource: CelesTrak SupGP

Época: Sep 14, 2026, 20:50 UTC

1 59155C 24044D   26257.86854167 -.00010100  00000+0 -36606-3 0  2570
2 59155  42.9994 122.3610 0001378 274.6212 132.1989 15.27561468    11

Sigue STARLINK-31341 en tiempo real con AllMySat

Download on the App Store